| time (UTC) | temp F | wind direction | speed MPH | gust MPH | rain 1hr in | rain 24hr in | rain mn in | humidity % | barometer mb |
| 20260504160415 | 65 | 277 | 8.0 | 12.0 | 0.00 | 0.00 | 0.00 | 43 | 1010.5 |
| 20260504150916 | 63 | 187 | 9.0 | 16.0 | 0.00 | 0.00 | 0.00 | 42 | 1010.9 |
| 20260504150416 | 63 | 238 | 7.0 | 17.0 | 0.00 | 0.00 | 0.00 | 43 | 1011.0 |
| 20260504140915 | 60 | 260 | 9.0 | 15.0 | 0.00 | 0.00 | 0.00 | 42 | 1011.1 |
| 20260504140416 | 60 | 258 | 6.0 | 17.0 | 0.00 | 0.00 | 0.00 | 42 | 1011.1 |
| 20260504130417 | 53 | 223 | 1.0 | 3.0 | 0.00 | 0.00 | 0.00 | 57 | 1011.5 |
| 20260504110603 | 35 | 220 | 0.0 | 0.0 | 0.00 | 0.00 | 0.00 | 92 | 1011.9 |
| 20260504100252 | 32 | 221 | 0.0 | 2.0 | 0.00 | 0.00 | 0.00 | 92 | 1012.1 |
| 20260504081639 | 35 | 239 | 0.0 | 4.0 | 0.00 | 0.00 | 0.00 | 90 | 1012.3 |
| 20260504081139 | 34 | 30 | 2.0 | 4.0 | 0.00 | 0.00 | 0.00 | 90 | 1012.3 |
| 20260504080638 | 34 | 156 | 0.0 | 2.0 | 0.00 | 0.00 | 0.00 | 90 | 1012.4 |
| 20260504080137 | 34 | 155 | 0.0 | 3.0 | 0.00 | 0.00 | 0.00 | 90 | 1012.4 |
| 20260504070344 | 36 | 0 | 1.0 | 1.0 | 0.00 | 0.00 | 0.00 | 89 | 1012.4 |
| 20260504060128 | 36 | 0 | 0.0 | 0.0 | 0.00 | 0.00 | 0.00 | 86 | 1012.3 |
| 20260504050613 | 38 | 0 | 0.0 | 1.0 | 0.00 | 0.00 | 0.00 | 84 | 1012.4 |
| 20260504050116 | 38 | 0 | 0.0 | 0.0 | 0.00 | 0.00 | 0.00 | 83 | 1012.6 |
| 20260504045613 | 38 | 0 | 0.0 | 0.0 | 0.00 | 0.00 | 0.00 | 82 | 1012.5 |
| 20260504045117 | 38 | 0 | 0.0 | 0.0 | 0.00 | 0.00 | 0.00 | 82 | 1012.5 |
| 20260504044610 | 38 | 0 | 0.0 | 0.0 | 0.00 | 0.00 | 0.00 | 82 | 1012.5 |
| 20260504044110 | 38 | 0 | 0.0 | 0.0 | 0.00 | 0.00 | 0.00 | 82 | 1012.5 |
| 20260504043608 | 39 | 0 | 0.0 | 0.0 | 0.00 | 0.00 | 0.00 | 81 | 1012.4 |
| 20260504043112 | 39 | 0 | 0.0 | 0.0 | 0.00 | 0.00 | 0.00 | 81 | 1012.5 |
| 20260504042831 | 39 | 0 | 0.0 | 2.0 | 0.00 | 0.00 | 0.00 | 81 | 1012.4 |
| 20260504042340 | 39 | 0 | 0.0 | 2.0 | 0.00 | 0.00 | 0.00 | 82 | 1012.4 |
| 20260504041602 | 38 | 0 | 0.0 | 2.0 | 0.00 | 0.00 | 0.00 | 82 | 1012.4 |
| 20260504041101 | 39 | 0 | 0.0 | 0.0 | 0.00 | 0.00 | 0.00 | 81 | 1012.5 |
| 20260504040819 | 39 | 0 | 0.0 | 0.0 | 0.00 | 0.00 | 0.00 | 80 | 1012.5 |
| 20260504040057 | 40 | 0 | 0.0 | 0.0 | 0.00 | 0.00 | 0.00 | 79 | 1012.4 |
| 20260504035558 | 40 | 0 | 0.0 | 0.0 | 0.00 | 0.00 | 0.00 | 78 | 1012.4 |
| 20260504035054 | 41 | 0 | 0.0 | 0.0 | 0.00 | 0.00 | 0.00 | 75 | 1012.3 |
| 20260504034554 | 41 | 0 | 0.0 | 0.0 | 0.00 | 0.00 | 0.00 | 76 | 1012.2 |
| 20260504034051 | 41 | 0 | 0.0 | 1.0 | 0.00 | 0.00 | 0.00 | 75 | 1012.2 |
| 20260504033552 | 42 | 0 | 0.0 | 1.0 | 0.00 | 0.00 | 0.00 | 72 | 1012.0 |
| 20260504033320 | 42 | 0 | 0.0 | 0.0 | 0.00 | 0.00 | 0.00 | 73 | 1012.1 |
| 20260504032552 | 41 | 0 | 0.0 | 0.0 | 0.00 | 0.00 | 0.00 | 75 | 1012.0 |
| 20260504032315 | 41 | 0 | 0.0 | 0.0 | 0.00 | 0.00 | 0.00 | 75 | 1011.9 |
| 20260504031812 | 42 | 0 | 0.0 | 0.0 | 0.00 | 0.00 | 0.00 | 72 | 1011.9 |
| 20260504031053 | 42 | 0 | 0.0 | 0.0 | 0.00 | 0.00 | 0.00 | 72 | 1011.8 |
| 20260504030552 | 42 | 0 | 0.0 | 0.0 | 0.00 | 0.00 | 0.00 | 74 | 1011.9 |
| 20260504030052 | 43 | 0 | 0.0 | 0.0 | 0.00 | 0.00 | 0.00 | 73 | 1011.9 |
| 20260504025822 | 42 | 0 | 0.0 | 0.0 | 0.00 | 0.00 | 0.00 | 71 | 1011.9 |
| 20260504025322 | 42 | 0 | 0.0 | 0.0 | 0.00 | 0.00 | 0.00 | 73 | 1011.9 |
| 20260504024818 | 42 | 0 | 0.0 | 0.0 | 0.00 | 0.00 | 0.00 | 74 | 1011.8 |
| 20260504024049 | 43 | 0 | 0.0 | 0.0 | 0.00 | 0.00 | 0.00 | 71 | 1011.9 |
| 20260504023547 | 44 | 0 | 0.0 | 0.0 | 0.00 | 0.00 | 0.00 | 68 | 1011.8 |
| 20260504023046 | 45 | 0 | 0.0 | 1.0 | 0.00 | 0.00 | 0.00 | 64 | 1011.9 |
| 20260504022548 | 44 | 0 | 0.0 | 1.0 | 0.00 | 0.00 | 0.00 | 65 | 1012.0 |
| 20260504022046 | 44 | 0 | 0.0 | 0.0 | 0.00 | 0.00 | 0.00 | 69 | 1011.9 |
| 20260504021549 | 44 | 0 | 0.0 | 0.0 | 0.00 | 0.00 | 0.00 | 69 | 1012.1 |
| 20260504021042 | 45 | 0 | 0.0 | 0.0 | 0.00 | 0.00 | 0.00 | 66 | 1012.0 |
| 20260504020538 | 45 | 0 | 0.0 | 0.0 | 0.00 | 0.00 | 0.00 | 66 | 1011.9 |
| 20260504020037 | 45 | 0 | 0.0 | 0.0 | 0.00 | 0.00 | 0.00 | 68 | 1011.9 |
| 20260504015531 | 45 | 0 | 0.0 | 0.0 | 0.00 | 0.00 | 0.00 | 66 | 1011.9 |
| 20260504015033 | 46 | 0 | 0.0 | 0.0 | 0.00 | 0.00 | 0.00 | 65 | 1011.9 |
| 20260504014528 | 47 | 0 | 0.0 | 0.0 | 0.00 | 0.00 | 0.00 | 62 | 1011.9 |
| 20260504014519 | 47 | 0 | 0.0 | 1.0 | 0.00 | 0.00 | 0.00 | 60 | 1011.9 |
| 20260504013524 | 47 | 0 | 0.0 | 1.0 | 0.00 | 0.00 | 0.00 | 59 | 1011.8 |
| 20260504013016 | 47 | 0 | 0.0 | 0.0 | 0.00 | 0.00 | 0.00 | 60 | 1011.8 |
| 20260504012741 | 47 | 0 | 0.0 | 0.0 | 0.00 | 0.00 | 0.00 | 60 | 1011.8 |
| 20260504012242 | 48 | 0 | 0.0 | 0.0 | 0.00 | 0.00 | 0.00 | 60 | 1011.5 |
| 20260504011521 | 48 | 0 | 0.0 | 0.0 | 0.00 | 0.00 | 0.00 | 59 | 1011.5 |
| 20260504011252 | 48 | 0 | 0.0 | 0.0 | 0.00 | 0.00 | 0.00 | 58 | 1011.7 |
| 20260504010517 | 49 | 0 | 0.0 | 0.0 | 0.00 | 0.00 | 0.00 | 57 | 1011.5 |
| 20260504010012 | 49 | 0 | 0.0 | 0.0 | 0.00 | 0.00 | 0.00 | 57 | 1011.5 |
| 20260504005512 | 49 | 0 | 0.0 | 0.0 | 0.00 | 0.00 | 0.00 | 56 | 1011.5 |
| 20260504005013 | 50 | 0 | 0.0 | 3.0 | 0.00 | 0.00 | 0.00 | 56 | 1011.3 |
| 20260504004511 | 50 | 0 | 0.0 | 3.0 | 0.00 | 0.00 | 0.00 | 54 | 1011.4 |
| 20260504004012 | 51 | 335 | 1.0 | 2.0 | 0.00 | 0.00 | 0.00 | 52 | 1011.3 |
| 20260504003512 | 51 | 289 | 0.0 | 0.0 | 0.00 | 0.00 | 0.00 | 52 | 1011.3 |
| 20260504003012 | 52 | 289 | 0.0 | 1.0 | 0.00 | 0.00 | 0.00 | 51 | 1011.2 |
| 20260504002516 | 53 | 289 | 0.0 | 2.0 | 0.00 | 0.00 | 0.00 | 48 | 1011.1 |
| 20260504002011 | 53 | 289 | 0.0 | 3.0 | 0.00 | 0.00 | 0.00 | 46 | 1011.1 |
| 20260504001508 | 53 | 275 | 1.0 | 3.0 | 0.00 | 0.00 | 0.00 | 46 | 1011.0 |
| 20260504001007 | 53 | 294 | 0.0 | 2.0 | 0.00 | 0.00 | 0.00 | 48 | 1011.0 |
| 20260504000507 | 54 | 294 | 0.0 | 3.0 | 0.00 | 0.00 | 0.00 | 47 | 1010.9 |
| 20260504000007 | 55 | 294 | 1.0 | 4.0 | 0.00 | 0.00 | 0.00 | 44 | 1010.8 |
| 20260503235507 | 55 | 312 | 0.0 | 6.0 | 0.00 | 0.00 | 0.00 | 42 | 1010.7 |
| 20260503235008 | 56 | 290 | 2.0 | 6.0 | 0.00 | 0.00 | 0.00 | 42 | 1010.8 |
| 20260503234730 | 56 | 259 | 3.0 | 5.0 | 0.00 | 0.00 | 0.00 | 41 | 1010.7 |
| 20260503234009 | 56 | 327 | 2.0 | 7.0 | 0.00 | 0.00 | 0.00 | 40 | 1010.7 |
| 20260503233730 | 57 | 304 | 3.0 | 7.0 | 0.00 | 0.00 | 0.00 | 40 | 1010.6 |
| 20260503233009 | 57 | 266 | 4.0 | 7.0 | 0.00 | 0.00 | 0.00 | 40 | 1010.5 |
| 20260503232509 | 57 | 259 | 3.0 | 7.0 | 0.00 | 0.00 | 0.00 | 40 | 1010.5 |
| 20260503232008 | 57 | 284 | 3.0 | 11.0 | 0.00 | 0.00 | 0.00 | 39 | 1010.5 |
| 20260503231507 | 58 | 271 | 5.0 | 11.0 | 0.00 | 0.00 | 0.00 | 38 | 1010.6 |
| 20260503231008 | 58 | 261 | 6.0 | 11.0 | 0.00 | 0.00 | 0.00 | 38 | 1010.4 |
| 20260503230506 | 58 | 231 | 5.0 | 13.0 | 0.00 | 0.00 | 0.00 | 37 | 1010.4 |
| 20260503230237 | 58 | 275 | 8.0 | 15.0 | 0.00 | 0.00 | 0.00 | 36 | 1010.4 |
| 20260503225513 | 59 | 259 | 8.0 | 15.0 | 0.00 | 0.00 | 0.00 | 36 | 1010.5 |
| 20260503225454 | 58 | 277 | 4.0 | 12.0 | 0.00 | 0.00 | 0.00 | 37 | 1010.4 |
| 20260503224500 | 58 | 323 | 5.0 | 12.0 | 0.00 | 0.00 | 0.00 | 37 | 1010.4 |
| 20260503223958 | 58 | 257 | 5.0 | 12.0 | 0.00 | 0.00 | 0.00 | 36 | 1010.5 |
| 20260503223458 | 59 | 284 | 4.0 | 12.0 | 0.00 | 0.00 | 0.00 | 36 | 1010.5 |
| 20260503222955 | 59 | 271 | 7.0 | 20.0 | 0.00 | 0.00 | 0.00 | 36 | 1010.6 |
| 20260503222452 | 59 | 252 | 7.0 | 20.0 | 0.00 | 0.00 | 0.00 | 35 | 1010.7 |
| 20260503221952 | 60 | 264 | 6.0 | 13.0 | 0.00 | 0.00 | 0.00 | 36 | 1010.6 |
| 20260503221453 | 60 | 252 | 2.0 | 11.0 | 0.00 | 0.00 | 0.00 | 36 | 1010.4 |
| 20260503220951 | 60 | 263 | 6.0 | 13.0 | 0.00 | 0.00 | 0.00 | 35 | 1010.4 |
| 20260503220716 | 60 | 279 | 6.0 | 15.0 | 0.00 | 0.00 | 0.00 | 35 | 1010.5 |
| 20260503220553 | 60 | 257 | 6.0 | 14.0 | 0.00 | 0.00 | 0.00 | 35 | 1010.4 |
| 20260503215454 | 60 | 254 | 8.0 | 15.0 | 0.00 | 0.00 | 0.00 | 35 | 1010.5 |
| 20260503214950 | 60 | 306 | 4.0 | 14.0 | 0.00 | 0.00 | 0.00 | 35 | 1010.5 |
| 20260503214449 | 60 | 271 | 9.0 | 14.0 | 0.00 | 0.00 | 0.00 | 35 | 1010.5 |
| 20260503213951 | 60 | 286 | 8.0 | 15.0 | 0.00 | 0.00 | 0.00 | 35 | 1010.5 |
| 20260503213727 | 60 | 290 | 8.0 | 15.0 | 0.00 | 0.00 | 0.00 | 36 | 1010.5 |
| 20260503213205 | 59 | 300 | 6.0 | 15.0 | 0.00 | 0.00 | 0.00 | 35 | 1010.3 |
| 20260503213048 | 59 | 225 | 6.0 | 15.0 | 0.00 | 0.00 | 0.00 | 36 | 1010.3 |
| 20260503212227 | 59 | 286 | 5.0 | 13.0 | 0.00 | 0.00 | 0.00 | 36 | 1010.3 |
| 20260503211446 | 59 | 271 | 8.0 | 14.0 | 0.00 | 0.00 | 0.00 | 36 | 1010.3 |
| 20260503210947 | 60 | 296 | 6.0 | 14.0 | 0.00 | 0.00 | 0.00 | 34 | 1010.4 |
| 20260503210719 | 60 | 270 | 9.0 | 14.0 | 0.00 | 0.00 | 0.00 | 35 | 1010.4 |
| 20260503205947 | 59 | 232 | 6.0 | 14.0 | 0.00 | 0.00 | 0.00 | 35 | 1010.2 |
| 20260503205448 | 60 | 271 | 8.0 | 14.0 | 0.00 | 0.00 | 0.00 | 34 | 1010.3 |
| 20260503204944 | 60 | 279 | 7.0 | 14.0 | 0.00 | 0.00 | 0.00 | 34 | 1010.3 |
| 20260503204443 | 60 | 256 | 6.0 | 12.0 | 0.00 | 0.00 | 0.00 | 35 | 1010.2 |
| 20260503203944 | 59 | 290 | 5.0 | 17.0 | 0.00 | 0.00 | 0.00 | 35 | 1010.2 |
| 20260503203443 | 60 | 225 | 8.0 | 17.0 | 0.00 | 0.00 | 0.00 | 36 | 1010.4 |
| 20260503202942 | 59 | 305 | 6.0 | 14.0 | 0.00 | 0.00 | 0.00 | 36 | 1010.3 |
| 20260503202441 | 59 | 304 | 5.0 | 13.0 | 0.00 | 0.00 | 0.00 | 35 | 1010.5 |
| 20260503201943 | 59 | 281 | 4.0 | 11.0 | 0.00 | 0.00 | 0.00 | 36 | 1010.5 |
| 20260503201702 | 58 | 348 | 5.0 | 12.0 | 0.00 | 0.00 | 0.00 | 35 | 1010.6 |
| 20260503200942 | 59 | 269 | 4.0 | 13.0 | 0.00 | 0.00 | 0.00 | 36 | 1010.7 |
| 20260503200441 | 60 | 296 | 8.0 | 19.0 | 0.00 | 0.00 | 0.00 | 35 | 1010.8 |
| 20260503195942 | 60 | 304 | 9.0 | 19.0 | 0.00 | 0.00 | 0.00 | 36 | 1010.6 |
| 20260503195444 | 60 | 17 | 3.0 | 13.0 | 0.00 | 0.00 | 0.00 | 35 | 1010.6 |
| 20260503195201 | 59 | 315 | 7.0 | 17.0 | 0.00 | 0.00 | 0.00 | 34 | 1010.5 |
| 20260503194439 | 58 | 247 | 10.0 | 17.0 | 0.00 | 0.00 | 0.00 | 36 | 1010.9 |
| 20260503193940 | 57 | 264 | 9.0 | 16.0 | 0.00 | 0.00 | 0.00 | 36 | 1010.8 |
| 20260503193439 | 58 | 255 | 5.0 | 19.0 | 0.00 | 0.00 | 0.00 | 36 | 1010.9 |
| 20260503193206 | 58 | 5 | 6.0 | 19.0 | 0.00 | 0.00 | 0.00 | 35 | 1011.0 |
| 20260503192440 | 59 | 286 | 8.0 | 16.0 | 0.00 | 0.00 | 0.00 | 36 | 1010.9 |
| 20260503192200 | 58 | 286 | 6.0 | 16.0 | 0.00 | 0.00 | 0.00 | 34 | 1011.0 |
| 20260503191433 | 58 | 267 | 2.0 | 12.0 | 0.00 | 0.00 | 0.00 | 35 | 1011.2 |
| 20260503190933 | 57 | 275 | 6.0 | 12.0 | 0.00 | 0.00 | 0.00 | 36 | 1011.2 |
| 20260503190434 | 56 | 273 | 4.0 | 17.0 | 0.00 | 0.00 | 0.00 | 36 | 1011.3 |
| 20260503185933 | 56 | 311 | 4.0 | 18.0 | 0.00 | 0.00 | 0.00 | 38 | 1011.4 |
| 20260503185432 | 57 | 256 | 9.0 | 18.0 | 0.00 | 0.00 | 0.00 | 36 | 1011.4 |
| 20260503184931 | 59 | 280 | 6.0 | 15.0 | 0.00 | 0.00 | 0.00 | 36 | 1011.4 |
| 20260503184425 | 59 | 284 | 2.0 | 20.0 | 0.00 | 0.00 | 0.00 | 36 | 1011.4 |
| 20260503183921 | 57 | 324 | 8.0 | 20.0 | 0.00 | 0.00 | 0.00 | 37 | 1011.4 |
| 20260503183423 | 58 | 252 | 5.0 | 13.0 | 0.00 | 0.00 | 0.00 | 35 | 1011.7 |
| 20260503182920 | 57 | 251 | 6.0 | 16.0 | 0.00 | 0.00 | 0.00 | 35 | 1011.7 |
| 20260503182638 | 56 | 269 | 6.0 | 16.0 | 0.00 | 0.00 | 0.00 | 36 | 1011.8 |
| 20260503182151 | 57 | 245 | 5.0 | 14.0 | 0.00 | 0.00 | 0.00 | 36 | 1011.8 |
| 20260503181413 | 56 | 329 | 6.0 | 20.0 | 0.00 | 0.00 | 0.00 | 35 | 1011.8 |
| 20260503180910 | 57 | 325 | 11.0 | 20.0 | 0.00 | 0.00 | 0.00 | 35 | 1011.8 |
| 20260503180635 | 57 | 270 | 5.0 | 15.0 | 0.00 | 0.00 | 0.00 | 38 | 1011.8 |
| 20260503175907 | 56 | 267 | 6.0 | 15.0 | 0.00 | 0.00 | 0.00 | 38 | 1011.8 |
| 20260503175406 | 56 | 324 | 8.0 | 16.0 | 0.00 | 0.00 | 0.00 | 39 | 1011.9 |
| 20260503175122 | 55 | 292 | 6.0 | 16.0 | 0.00 | 0.00 | 0.00 | 41 | 1011.8 |
| 20260503174620 | 54 | 249 | 6.0 | 18.0 | 0.00 | 0.00 | 0.00 | 38 | 1011.9 |
| 20260503173857 | 56 | 320 | 4.0 | 18.0 | 0.00 | 0.00 | 0.00 | 38 | 1012.0 |
| 20260503173356 | 56 | 232 | 9.0 | 16.0 | 0.00 | 0.00 | 0.00 | 38 | 1012.2 |
| 20260503172855 | 56 | 279 | 4.0 | 13.0 | 0.00 | 0.00 | 0.00 | 36 | 1012.0 |
| 20260503172356 | 55 | 252 | 6.0 | 13.0 | 0.00 | 0.00 | 0.00 | 39 | 1012.1 |
| 20260503171855 | 54 | 292 | 7.0 | 11.0 | 0.00 | 0.00 | 0.00 | 41 | 1012.2 |
| 20260503171355 | 54 | 267 | 5.0 | 11.0 | 0.00 | 0.00 | 0.00 | 39 | 1012.2 |
| 20260503170856 | 55 | 340 | 6.0 | 15.0 | 0.00 | 0.00 | 0.00 | 40 | 1012.4 |
| 20260503170355 | 55 | 248 | 6.0 | 15.0 | 0.00 | 0.00 | 0.00 | 39 | 1012.5 |